Main page
METAR-TAF:

METAR-TAF

Airports :

Bétera-Valencia

Valencia, Spain

latitude: 39-37-26N, longitude: 0-28-26W, elevation: 127 m

Current weather observation

The report was made 40 minutes ago, at 07:30 UTC
Wind 4 kt from the West/Northwest, varying between South/Southwest and North
Temperature 16°C
Humidity 59%
Pressure 1017 hPa
Visibility 10 km or more
no clouds below 1500 m and no cumulonimbus

METAR: LEBT 210730Z AUTO 29004KT 200V360 CAVOK 16/08 Q1017

Time: 10:10 (08:10 UTC)


TAF: missing

Weather observations and forecasts of more than 4000 airports (METAR and TAF reports).

The available stations are represented by yellow and red dots on the map.

Hover mouse over dot to see the name of the station.

Then click to see weather observations and forecasts.

To change the map : click on the green buttons with a black cross to zoom in, on the green button with a dash to zoom out, or on the green arrows for adjacent maps.


METAR-TAF: